GFSNE_con_3kmhel_144.txt.gz
Helicity
133 136 144 133 136 139 146 157 171 159 143 117 107 78 79 95 65 79 70 56 56 51 50 57 76 73 82 88 98 96 98 111 111 101 109 123 118 157
172 163 161 165 159 167 170 173 189 213 204 149 133 138 124 111 90 104 83 73 61 56 48 49 70 79 82 86 84 75 74 94 121 109 108 116 93 110
212 208 189 192 193 194 197 203 212 252 248 192 161 158 156 132 118 112 94 83 81 68 59 63 68 74 69 68 69 75 78 72 95 99 105 100 93 71
226 245 209 236 220 216 224 214 222 244 268 201 188 171 143 132 117 115 106 100 93 71 56 62 58 58 60 59 66 77 68 62 58 72 81 84 75 80
231 258 221 280 252 276 269 258 267 244 264 273 229 185 152 145 135 125 118 110 101 62 60 51 55 53 65 77 80 63 53 61 54 55 58 75 80 57
247 270 263 301 285 290 314 286 291 285 297 289 260 223 184 149 162 145 145 138 126 97 72 68 58 54 84 77 54 58 49 46 47 49 55 65 66 65
248 259 268 274 241 274 342 315 335 314 315 302 278 266 246 200 189 155 179 162 137 124 95 106 127 116 97 72 57 51 52 43 40 51 62 67 70 63
239 236 249 220 208 182 191 223 283 340 328 300 273 278 224 224 213 203 207 180 128 98 96 121 145 119 122 117 44 34 39 44 48 50 51 53 54 49
226 230 242 245 208 262 199 176 182 179 206 228 263 283 232 253 257 232 211 210 182 154 147 99 116 117 153 130 47 43 37 41 40 41 37 41 50 54
227 234 238 220 232 254 277 301 311 317 239 226 271 221 249 243 221 236 215 204 180 142 146 142 127 132 124 118 53 50 39 42 40 39 46 48 54 52
211 238 238 233 177 151 299 317 329 255 180 148 143 147 160 135 181 250 237 205 171 149 164 163 156 143 99 95 98 59 74 73 77 75 40 38 44 48
243 237 149 198 151 144 265 340 296 224 202 193 180 150 146 177 139 187 239 248 173 151 160 170 157 95 20 37 61 83 137 94 63 42 34 39 41 44
270 246 247 144 127 130 139 302 249 174 166 174 192 210 231 235 219 218 242 201 183 189 211 219 171 129 112 86 58 64 83 88 73 61 45 47 44 45
279 262 256 158 125 121 156 130 106 105 208 220 230 232 220 231 231 211 191 184 179 160 177 203 157 124 120 73 45 54 83 111 117 128 125 84 52 47
285 241 197 151 128 138 127 124 98 178 203 235 233 216 230 218 215 211 178 157 157 153 159 175 173 140 125 88 58 62 47 71 88 123 123 117 113 118
175 218 221 182 188 222 192 161 191 216 192 199 236 236 249 246 204 202 177 179 177 142 144 147 142 136 104 97 84 71 74 75 89 109 122 122 123 119
143 218 264 286 243 230 230 209 202 195 184 217 221 216 220 212 193 196 183 196 175 155 153 145 125 119 127 109 109 118 95 95 118 121 96 91 88 105
133 206 205 235 244 222 223 203 219 182 204 211 229 219 210 198 179 189 194 177 162 139 135 138 141 138 106 101 109 121 110 98 96 102 101 101 87 111
125 169 211 200 197 203 205 205 215 216 180 208 202 202 193 183 137 181 174 162 146 136 132 138 148 145 98 94 114 79 151 132 134 145 163 167 148 140
108 143 186 227 196 195 179 198 196 186 180 183 188 205 197 181 176 178 171 177 156 126 104 117 143 135 146 144 114 100 68 147 172 163 165 171 162 64
88 130 157 174 212 194 176 169 164 167 168 184 199 206 191 183 163 148 155 109 79 99 89 94 127 80 122 134 148 144 146 88 108 163 157 149 139 136
100 100 132 177 176 205 188 159 161 143 156 202 199 197 183 165 140 149 135 116 103 90 75 75 88 117 132 127 121 111 123 123 93 66 67 85 164 164
122 104 86 139 152 155 168 156 150 162 176 207 206 187 165 143 145 138 119 109 94 93 95 79 93 117 114 118 88 111 101 129 151 136 149 124 95 103

GFSNE_con_3kmhel_147.txt.gz
Helicity
130 132 135 138 148 148 153 159 156 141 117 105 106 85 98 125 126 111 108 99 94 87 77 68 60 65 68 72 72 88 92 84 76 95 100 105 93 97
156 156 154 167 172 181 179 179 181 166 176 127 114 130 130 127 121 109 107 91 92 81 75 70 55 53 54 64 68 67 67 66 81 83 98 97 110 93
182 190 172 190 196 207 214 210 208 225 199 166 159 165 161 136 133 132 125 113 109 80 74 69 61 52 51 47 50 54 51 90 81 81 79 85 89 97
160 201 187 213 197 212 241 217 229 244 262 173 168 175 164 144 141 137 129 133 119 102 88 80 67 56 47 44 41 50 66 67 63 70 74 84 83 76
189 210 208 220 213 243 248 259 255 253 256 281 227 202 175 170 147 133 126 129 136 110 91 80 65 48 47 50 70 82 87 70 51 55 61 75 72 85
183 206 212 241 243 236 266 265 252 263 280 299 271 227 206 163 175 152 148 151 154 146 118 98 83 62 47 66 87 77 63 57 47 44 48 46 72 83
160 187 207 213 203 223 301 287 291 312 327 332 317 285 245 238 224 189 187 173 133 147 141 147 135 104 87 76 77 67 50 50 44 44 42 57 62 81
161 168 191 179 169 138 157 199 288 348 340 365 336 336 245 239 194 185 193 187 170 146 158 152 155 120 92 104 82 58 40 48 46 38 53 58 63 64
174 179 185 202 168 203 156 155 202 194 229 305 331 319 244 201 180 171 201 199 177 145 142 126 139 109 94 111 81 54 46 47 48 47 54 51 49 48
175 180 193 184 205 207 225 248 255 264 245 277 309 254 217 162 208 175 173 172 192 158 177 165 116 85 88 101 80 88 71 50 46 48 46 40 49 59
185 192 205 204 150 117 220 258 243 263 234 239 259 248 152 127 169 217 241 216 188 167 183 187 119 99 101 100 105 107 93 72 61 63 106 87 49 45
150 183 148 171 141 136 222 281 283 236 280 292 261 217 148 140 107 202 207 227 210 189 163 178 110 114 72 71 118 125 113 94 93 65 67 56 50 56
153 154 185 137 134 136 138 275 276 206 226 247 226 202 194 199 190 179 216 221 220 214 193 211 171 135 148 128 106 95 79 77 67 58 50 44 44 47
167 142 143 125 146 139 172 168 139 165 257 239 244 220 201 189 178 174 187 228 218 186 148 190 179 149 153 114 79 58 64 66 84 74 73 66 53 44
144 134 136 119 105 133 107 126 139 254 248 266 225 207 214 164 163 204 215 208 184 188 173 191 194 163 152 124 80 45 53 66 79 94 98 109 102 90
85 104 82 76 67 88 113 144 210 252 274 262 212 182 171 183 185 194 205 201 194 163 143 138 148 148 147 122 87 57 60 90 73 73 84 109 109 95
74 102 118 119 98 110 131 165 187 222 266 252 208 188 177 168 181 205 195 199 180 149 127 141 136 131 135 111 70 73 81 87 89 89 79 94 97 92
102 111 122 131 157 145 157 170 199 203 191 200 202 185 165 174 164 191 184 167 146 124 120 120 147 152 129 78 86 90 85 84 66 55 59 80 93 92
122 119 128 118 123 164 178 213 197 171 151 163 168 174 172 199 156 163 162 169 128 119 113 132 138 123 71 39 57 46 84 76 60 67 77 101 100 101
136 139 150 117 107 147 183 190 223 160 162 138 160 147 175 168 145 149 178 148 122 109 107 116 123 113 103 76 56 47 66 90 110 116 114 112 108 46
143 145 123 125 91 101 179 183 218 162 131 140 146 140 159 138 144 147 137 102 98 109 90 89 96 71 99 110 104 68 85 75 86 120 116 107 104 98
171 165 148 100 86 66 105 180 168 144 128 122 125 128 136 136 139 129 132 115 102 111 81 72 81 97 110 113 104 79 74 64 66 47 43 69 158 184
144 173 177 107 70 61 6 133 151 137 134 103 140 130 132 130 101 122 118 101 93 74 58 41 60 79 74 81 59 71 65 75 87 86 108 79 69 70

GFSNE_con_3kmhel_153.txt.gz
Helicity
118 119 136 148 154 170 181 191 207 223 184 171 206 193 153 159 149 157 125 73 69 58 55 56 60 63 67 68 73 76 77 67 75 71 62 72 94 107
139 133 144 167 171 196 219 216 232 248 276 247 217 237 196 157 162 164 137 114 91 70 54 53 56 56 59 65 69 73 75 65 57 57 77 66 76 86
124 138 147 163 187 212 235 243 245 258 285 257 230 224 262 230 184 180 160 154 141 70 55 56 51 51 55 65 71 72 74 67 58 48 73 70 66 75
95 113 124 155 159 174 225 250 269 272 294 265 261 257 251 258 239 203 187 176 159 104 70 63 57 52 54 62 69 75 79 76 64 61 77 72 69 75
87 98 111 124 142 187 200 235 259 277 286 291 288 270 265 266 264 223 220 214 198 147 90 79 69 61 60 70 74 80 83 83 72 76 86 61 59 71
103 113 122 133 140 150 179 198 220 255 278 299 307 300 290 265 268 279 260 239 214 185 127 106 93 79 71 73 75 78 90 82 99 83 76 68 60 62
103 115 128 135 138 148 187 192 198 236 283 317 326 313 338 340 341 301 288 262 237 204 194 189 166 137 138 78 74 82 88 84 100 83 80 75 65 61
113 119 128 134 134 115 115 123 164 226 252 302 325 326 314 335 303 314 315 322 269 214 214 212 176 155 166 150 98 89 93 88 86 86 81 71 70 66
102 117 127 140 135 138 125 121 142 133 143 224 265 303 277 287 270 292 319 349 297 269 227 233 194 173 167 139 83 94 103 89 87 84 79 73 70 62
117 130 127 125 128 132 145 157 150 158 159 174 191 217 236 223 242 272 290 282 263 237 268 249 225 203 169 169 79 73 89 94 88 85 79 70 75 56
122 112 111 110 88 70 129 140 141 146 123 92 90 93 92 115 162 262 321 321 309 311 243 222 267 224 151 180 165 85 93 88 86 97 82 76 65 70
147 127 80 69 63 87 94 99 107 99 100 109 129 129 125 134 108 231 302 335 338 280 239 280 275 267 250 179 145 159 168 121 102 99 90 86 61 159
174 159 146 99 95 89 84 108 99 90 96 103 113 126 134 176 199 205 289 368 369 282 291 194 258 266 269 230 178 156 155 141 121 110 74 82 77 86
181 168 135 72 68 67 85 65 45 54 129 123 113 134 151 169 215 209 218 311 291 265 227 286 304 283 260 234 207 167 146 142 141 142 138 101 84 66
177 127 73 74 68 82 54 27 30 92 162 172 152 145 137 148 176 219 236 293 304 191 196 302 276 249 222 182 170 165 142 153 146 142 134 120 105 100
152 155 122 93 66 58 65 66 88 93 131 163 153 132 127 158 233 356 271 223 170 186 119 170 238 245 229 208 192 175 171 161 113 117 119 106 105 105
175 206 182 145 113 84 83 101 121 101 109 131 143 117 149 150 243 320 342 237 145 145 156 136 176 192 165 179 185 160 150 145 145 135 118 109 87 87
182 195 169 134 121 104 105 119 134 86 98 93 133 110 113 142 249 278 245 188 139 122 108 176 188 194 184 159 129 137 153 146 136 127 115 81 61 83
162 150 140 118 108 111 127 138 132 129 110 89 86 110 116 128 222 206 228 167 124 88 131 229 243 216 176 130 128 48 120 110 106 94 82 85 68 75
128 127 121 122 120 123 134 155 143 155 119 80 75 95 99 106 123 142 133 122 108 127 164 204 221 210 160 108 114 111 64 104 103 76 73 73 71 43
106 109 111 117 133 156 168 168 149 138 77 62 58 88 70 53 68 35 91 93 102 157 141 158 167 124 188 164 99 104 113 77 98 111 89 64 59 61
112 117 124 124 140 160 174 157 106 99 58 27 5 36 -7 69 -36 -11 77 113 114 130 110 159 184 168 178 107 58 54 58 69 34 1 14 59 113 91
133 142 150 147 148 159 137 136 66 87 25 -11 -25 8 -19 -3 -27 -20 52 96 87 71 149 172 194 171 122 91 46 50 40 42 51 48 35 -26 -27 3

GFSNE_con_3kmhel_156.txt.gz
Helicity
106 112 131 133 138 150 169 202 232 222 188 149 146 127 188 217 201 226 219 147 95 73 80 77 74 68 60 56 55 53 55 55 56 55 55 50 48 76
112 117 148 161 148 164 186 202 244 239 260 221 201 174 187 240 238 269 234 168 113 89 82 79 76 72 66 59 56 54 53 52 48 50 56 66 90 80
127 133 147 159 174 191 202 216 229 267 253 227 232 186 213 245 266 289 273 256 232 108 84 75 76 72 71 62 54 54 54 55 50 61 59 60 73 78
96 113 122 134 167 194 221 222 241 263 264 205 207 235 237 231 268 320 315 303 286 180 97 87 80 76 75 67 54 55 59 59 60 71 70 56 78 77
90 100 108 118 139 176 203 226 252 257 279 282 250 240 254 281 247 268 320 301 310 231 133 103 94 92 90 75 61 58 63 63 68 74 61 59 82 71
99 105 116 138 150 162 180 206 218 249 266 294 277 263 260 259 266 251 245 311 315 290 228 184 154 129 96 78 61 68 78 68 69 70 53 68 79 71
115 115 122 134 125 134 176 194 223 241 257 271 263 236 230 214 224 186 208 216 265 292 270 247 228 207 209 115 113 98 81 76 82 80 76 82 76 70
117 123 142 136 138 118 116 120 144 191 201 227 224 227 197 190 171 183 189 189 226 234 251 272 258 240 220 217 118 78 74 71 83 83 89 75 78 72
122 130 137 135 135 142 135 124 135 125 122 143 158 157 149 156 153 157 174 195 234 235 213 217 226 208 226 185 92 62 63 81 86 81 80 79 71 68
141 145 147 148 160 147 158 173 174 171 141 145 152 147 141 126 120 134 148 178 233 232 271 251 287 269 292 225 88 57 60 66 75 80 76 71 68 69
147 145 152 158 119 97 152 156 140 120 91 78 81 76 64 55 55 96 146 177 219 269 319 307 274 258 308 249 205 63 50 54 67 70 70 70 72 72
159 152 123 126 112 128 154 155 139 105 102 99 108 98 85 69 34 78 120 138 160 175 242 309 275 333 288 285 230 202 178 90 99 88 73 88 69 140
171 171 174 111 97 98 94 124 120 103 100 109 110 121 144 143 151 143 149 152 176 223 245 241 279 290 340 226 185 208 253 217 179 140 80 71 80 101
178 192 189 117 99 108 116 92 77 78 123 124 112 123 135 130 151 157 146 154 177 208 212 266 452 368 300 268 229 221 201 176 186 157 132 99 76 83
198 169 116 123 106 113 78 60 75 118 114 113 122 150 158 159 139 136 117 134 162 185 254 341 476 386 265 256 221 202 210 162 161 161 164 144 150 150
156 172 139 106 89 93 92 91 103 93 97 107 131 142 115 112 116 114 126 91 183 244 260 211 239 293 242 232 176 200 182 179 143 163 169 166 167 151
133 178 179 169 151 124 115 97 86 100 107 130 164 132 131 111 103 107 123 112 175 194 193 140 167 214 179 180 176 174 204 205 178 165 155 142 160 131
145 173 161 154 146 132 103 98 106 96 114 140 153 140 146 99 91 90 101 159 150 214 164 145 112 119 112 134 150 171 172 159 168 165 151 130 105 98
151 146 154 153 148 141 120 122 127 130 148 154 142 166 104 83 72 79 -2 120 135 175 192 129 120 93 104 108 122 96 156 190 172 145 127 124 86 68
132 139 134 129 135 145 144 130 137 152 164 159 127 114 59 55 68 57 60 101 116 144 90 113 151 143 133 144 136 119 93 129 120 101 97 65 51 35
115 124 137 144 149 158 154 151 156 161 164 93 70 85 35 30 21 7 16 27 93 76 74 147 163 128 187 178 127 119 123 82 95 89 79 53 38 39
130 139 143 138 149 169 168 158 141 125 131 127 31 56 -9 2 12 -0 -18 -25 -36 44 116 131 130 163 182 128 5 64 35 44 24 7 6 38 72 42
149 167 174 165 158 173 175 154 111 72 68 8 29 -10 -22 -12 2 3 -6 -2 10 -0 26 67 140 135 13 -6 -18 -20 1 11 19 21 11 11 3 28

GFSNE_con_3kmhel_162.txt.gz
Helicity
69 75 93 103 115 127 147 175 194 168 118 88 86 66 85 107 107 106 106 81 82 75 86 90 98 100 82 74 73 71 66 66 68 67 66 64 70 68
82 81 91 105 103 124 151 174 221 225 243 191 129 135 111 107 124 144 164 124 105 90 80 95 104 106 91 80 76 77 76 76 74 72 66 61 60 66
83 85 83 87 97 100 116 144 169 207 210 183 185 135 138 117 119 143 161 169 170 103 86 81 93 100 103 100 86 74 76 74 70 72 74 68 61 57
89 94 92 99 103 106 115 118 141 150 178 135 137 162 159 147 133 131 141 145 167 151 124 117 117 118 119 124 127 117 108 108 87 76 71 66 57 55
98 102 102 107 109 113 124 135 147 155 172 175 144 148 149 140 132 128 126 125 151 127 116 120 123 123 130 126 118 112 112 116 122 100 82 71 66 66
102 106 111 114 116 123 128 130 134 162 170 172 158 144 139 100 110 107 109 109 102 95 85 79 84 100 115 145 158 152 134 116 111 101 88 89 86 76
111 113 112 113 93 99 114 126 144 166 176 180 175 163 155 142 139 116 106 93 106 120 115 115 126 145 159 119 130 156 154 121 115 115 106 82 81 73
112 118 125 106 105 102 124 124 133 166 177 190 175 172 145 144 131 131 123 126 112 85 92 113 113 142 128 122 93 93 128 165 157 115 91 110 85 83
125 136 149 143 133 146 131 132 141 153 179 195 195 193 174 143 139 145 138 145 151 120 98 102 89 107 122 146 31 53 59 111 129 134 65 93 98 77
149 155 158 156 157 153 154 162 173 178 155 181 196 180 161 140 134 136 132 119 112 111 105 108 85 101 93 133 49 8 34 67 99 95 59 59 90 80
140 146 149 155 112 96 138 156 145 139 112 87 86 74 65 62 85 126 139 127 112 99 106 112 117 115 107 101 119 59 25 36 73 59 77 54 68 58
125 125 97 118 96 111 135 133 137 116 112 119 113 89 75 81 55 96 117 116 106 89 88 102 113 100 95 118 147 156 139 74 72 58 48 69 51 135
144 133 127 91 83 72 67 119 113 93 95 114 111 105 91 108 106 102 125 129 107 99 83 99 113 87 136 145 172 145 133 147 146 111 45 49 47 97
130 143 137 75 74 76 84 78 68 73 114 117 112 88 98 106 115 118 123 129 149 147 115 113 133 113 134 140 108 145 180 173 208 200 163 110 52 62
136 113 69 72 54 80 70 46 57 100 119 132 128 129 126 123 109 102 90 119 141 151 130 109 122 116 130 138 144 148 126 185 218 115 140 119 171 252
113 145 97 83 81 84 84 88 110 112 106 109 114 108 112 113 98 105 114 121 134 112 92 99 124 124 99 119 98 80 224 228 140 94 102 108 115 119
149 149 126 115 110 98 98 102 113 122 113 124 132 114 100 101 104 128 135 104 111 78 79 91 104 72 5 -14 -31 109 216 212 75 70 92 87 80 75
140 131 121 109 99 94 90 90 99 88 124 135 145 154 133 124 127 139 97 82 56 73 107 58 71 -4 7 -15 6 57 110 134 82 48 64 75 85 105
125 122 118 119 118 109 124 130 111 106 113 146 148 156 144 127 56 56 34 52 52 72 69 16 7 3 11 19 7 14 44 83 77 84 95 109 113 132
120 136 146 145 154 163 161 136 133 129 121 120 136 131 84 49 -9 14 12 25 41 56 -24 -12 0 -10 5 -21 -24 12 37 65 77 90 111 133 132 109
133 152 164 173 190 180 131 142 142 109 79 45 36 21 -43 -40 -8 17 11 11 13 -13 -23 -36 -33 -24 -9 92 26 39 55 38 63 95 100 114 109 94
147 157 159 168 145 136 110 101 43 41 41 38 27 51 43 37 27 15 13 -1 -1 -14 -15 -29 -34 88 68 18 -32 63 61 72 89 91 69 83 99 71
151 152 136 111 135 85 77 67 60 49 43 45 48 42 31 32 29 18 5 1 5 -26 -38 -33 -34 -5 -15 -17 -17 -17 -25 -52 73 33 -33 22 10 -19